sat.trackr.live / text

‹ back to catalog

HJS-7B

NORAD 65618 · 2025-209B

PAYLOAD ACTIVE UNKNOWN

§ Identity

Operator
Country
PRC
Launch date
2025-09-16
Launch site
JSC
Launch vehicle
Mass (kg)
RCS (m²)

External: N2YO · Heavens-Above · Gunter

§ Orbital elements

Epoch: 2026-05-25T04:52:37.712064Z

Period
107.35 min
Inclination
49.9994°
Eccentricity
0.0001859
Mean motion
13.41461669 rev/d
Perigee alt
1,102.4 km
Apogee alt
1,105.2 km
Semi-major
7,482.0 km
B*
9.9335e-5
RAAN
83.4803°
Arg perigee
27.5716°
Mean anomaly
332.5259°
Rev number
3,455

§ Raw data

HJS-7B1 65618U 25209B   26145.20321426 -.00000073  00000+0  99335-4 0  99952 65618  49.9994  83.4803 0001859  27.5716 332.5259 13.41461669 34556

JSON: /api/v1/satellites/65618 · /tle

For live sub-satellite position, see the globe view (requires WebGL).

§ Visibility from observer

Set your observer location to see the next 7 days of passes ≥ 10°. The values pass through the URL so the page stays shareable.

No JS? Fill the form by hand. The geolocation button needs JavaScript.